GFSCGP_925_thetae_162.txt.gz
Theta_e
317 317 318 318 319 315 312 318 319 317 318 321 319 319 319 316 314 314 314 312 311 312 314 316 317 318 319 319 321 326 330 331 331 330 330 329 331 331 330 330 330 329 328 326
318 318 313 314 317 319 317 318 317 317 317 318 316 316 314 313 312 311 311 310 309 310 311 313 316 317 318 318 317 320 327 330 331 330 329 329 328 328 330 330 330 329 328 327
313 312 313 314 317 321 321 319 316 317 317 316 317 317 314 313 313 312 311 311 310 311 312 312 313 315 315 315 316 318 322 327 330 330 329 328 328 328 328 327 328 329 329 328
314 310 313 315 316 319 320 318 316 317 318 317 315 311 310 312 314 314 313 311 311 311 311 310 311 312 314 315 315 315 319 326 328 330 329 329 328 327 328 327 329 329 329 328
314 312 312 315 315 317 315 317 319 316 316 318 316 318 314 315 316 314 312 311 310 309 309 308 308 311 315 317 314 315 319 324 328 329 330 329 328 329 328 328 327 327 327 328
311 311 312 312 313 315 313 315 317 316 320 319 315 316 312 310 313 314 313 312 311 311 310 310 310 309 311 315 318 320 324 326 328 330 330 329 328 328 328 328 328 327 327 327
313 313 312 313 316 315 316 316 313 318 320 316 310 315 312 311 311 311 310 311 311 311 308 306 304 305 306 308 315 322 325 327 328 330 330 330 330 330 329 329 328 328 327 327
314 315 312 311 316 316 317 316 311 310 315 315 313 318 314 313 312 311 309 310 310 308 305 304 304 304 304 305 307 308 311 317 323 326 328 329 330 330 330 330 329 329 328 329
312 312 308 311 314 314 316 319 313 314 308 311 313 313 313 312 312 312 312 309 307 306 304 303 302 303 303 303 303 303 301 302 303 305 306 309 314 319 323 327 328 329 329 329
307 309 309 311 313 314 314 314 318 317 316 318 314 316 315 313 311 310 309 307 306 305 302 301 300 301 301 301 300 299 299 299 300 300 301 301 302 302 302 303 304 306 309 315
305 306 308 312 314 314 315 316 314 313 317 316 312 314 310 312 312 309 307 306 304 302 301 299 298 298 297 297 298 296 296 296 296 297 297 297 298 298 298 298 299 300 301 303
305 305 310 312 307 310 312 313 314 316 314 315 313 312 308 308 309 306 307 304 303 301 299 296 296 295 294 293 294 294 293 293 293 294 295 295 295 296 296 296 297 297 297 298
307 308 307 311 311 310 313 313 312 311 308 312 315 313 307 307 305 306 304 303 300 298 297 296 295 294 292 291 291 292 291 290 290 291 292 292 293 293 294 294 294 295 295 296
309 307 309 310 308 309 313 313 313 313 314 313 313 310 309 306 303 303 302 300 298 297 296 295 295 292 289 288 288 289 288 287 287 288 289 289 290 291 291 291 291 292 292 293
309 311 307 306 306 308 310 311 312 313 313 313 311 311 311 305 303 302 300 296 295 292 290 290 290 288 287 286 286 286 285 284 284 285 286 287 288 289 288 288 288 289 290 291
310 310 306 303 305 307 307 309 310 313 313 312 310 309 307 304 298 297 296 295 292 290 288 286 286 284 284 284 283 284 282 282 283 283 284 286 287 285 284 284 285 286 287 288
310 311 311 311 306 307 308 308 310 310 311 313 314 312 304 298 296 293 290 288 287 286 284 284 283 282 281 281 281 280 280 280 281 281 282 282 281 280 280 281 282 283 284 285
311 310 310 307 308 312 307 302 307 310 309 310 305 302 301 297 287 284 283 284 284 283 282 281 280 279 279 279 278 277 278 278 278 279 278 277 277 277 278 279 280 280 281 283
309 310 304 306 310 304 302 301 303 307 309 300 306 291 288 285 285 282 281 281 280 279 279 278 278 277 277 276 276 275 276 276 276 276 275 275 275 276 276 276 277 278 280 280
309 309 309 297 309 310 302 296 292 301 306 289 291 291 289 289 296 286 279 279 278 278 277 277 276 276 275 275 274 275 275 275 274 273 274 274 274 274 274 274 275 276 277 278
310 310 310 305 307 301 297 291 290 302 301 286 285 284 286 288 282 279 278 277 277 276 276 275 274 274 274 274 273 274 274 273 273 272 272 272 273 272 273 273 274 275 276 277
310 310 308 303 305 306 283 290 301 290 284 282 280 280 280 279 278 277 276 276 276 275 275 274 273 273 273 272 272 273 273 272 271 271 271 270 271 271 272 273 273 274 276 277
309 305 301 302 301 282 281 281 282 282 281 279 278 277 277 276 276 275 275 275 274 274 273 272 272 272 272 271 271 271 270 270 269 269 269 269 270 270 271 271 272 272 273 274
293 292 295 291 283 281 278 277 278 278 277 277 276 275 275 275 276 276 275 274 273 272 271 270 271 271 270 269 269 269 269 268 268 268 268 268 269 269 269 270 271 271 272 273
291 293 289 285 280 279 278 277 276 276 275 275 275 274 274 275 274 274 273 272 271 270 269 269 269 269 268 268 267 267 267 267 267 267 267 267 268 268 269 269 270 271 272 273
282 290 294 295 282 282 279 277 276 276 275 274 274 273 272 273 272 271 270 269 269 268 268 267 267 266 266 266 266 266 266 265 265 265 265 266 266 267 268 269 269 270 271 273

GFSCGP_925_thetae_165.txt.gz
Theta_e
316 316 315 316 319 311 310 316 316 315 316 319 319 319 319 316 314 314 314 312 313 313 314 314 313 315 315 317 317 318 320 323 328 329 330 330 330 331 331 331 331 330 330 330
317 316 311 311 314 317 315 314 315 316 316 317 316 317 315 314 314 315 316 314 312 310 310 311 314 315 314 315 317 317 318 320 325 328 329 329 329 329 331 331 332 331 330 330
313 311 312 312 315 319 319 318 315 313 315 314 314 312 314 312 313 310 311 311 310 310 311 311 311 313 315 315 316 315 315 316 319 325 328 328 328 328 328 328 329 329 329 328
314 309 312 314 315 316 317 316 314 316 315 313 310 307 306 307 309 312 311 311 311 311 310 310 311 311 311 313 315 317 317 315 318 325 328 328 327 327 327 327 328 328 328 328
312 311 311 313 313 315 314 316 317 315 316 317 315 317 311 313 313 313 312 310 309 309 309 309 308 309 310 313 317 317 314 316 321 326 328 328 328 328 327 328 327 327 327 328
310 310 308 309 311 315 312 314 315 315 318 317 312 315 309 310 313 312 314 312 310 309 309 305 305 306 307 314 320 321 321 323 325 327 328 328 328 328 327 328 328 328 328 328
312 311 312 310 313 313 314 313 311 316 319 315 310 314 311 308 309 310 311 310 308 308 304 303 303 303 303 304 308 317 321 323 327 328 328 328 328 328 328 328 329 329 328 328
313 314 311 311 312 314 316 314 310 310 311 312 310 315 312 309 309 308 307 307 308 305 303 302 301 300 301 300 300 301 303 305 309 316 319 324 326 327 327 328 328 328 328 328
313 312 308 311 313 312 315 317 310 312 309 311 311 310 312 311 311 311 310 307 308 303 301 300 299 298 298 297 297 297 298 298 299 300 301 301 302 304 305 310 313 312 315 316
308 310 308 310 313 312 313 312 316 315 313 311 313 313 313 312 311 309 309 308 305 301 299 298 297 296 296 295 295 294 295 295 296 296 296 297 297 297 297 298 298 298 299 300
304 306 308 311 314 315 315 316 313 312 312 312 310 308 308 311 310 310 308 306 302 300 298 296 294 293 293 293 292 292 291 292 293 293 294 294 294 294 295 294 295 295 295 296
304 305 309 311 307 309 313 314 314 315 315 314 313 312 306 307 308 307 306 301 299 297 294 293 292 291 290 290 291 290 289 289 289 290 291 291 292 292 292 292 292 292 293 294
308 309 311 312 310 309 311 312 313 312 307 314 316 313 306 306 305 305 302 299 297 295 294 293 291 290 289 288 288 288 286 286 286 287 288 288 289 290 289 288 289 289 290 291
309 309 311 310 309 308 312 311 311 313 315 313 312 311 307 306 306 303 299 297 296 294 294 293 290 289 287 286 286 285 284 284 284 284 285 286 287 287 285 285 286 286 286 287
310 312 310 308 305 307 310 311 311 312 313 312 311 309 309 305 304 301 297 295 293 291 290 289 287 286 285 284 283 283 282 282 282 282 283 284 283 282 282 282 283 283 284 284
309 312 310 310 306 306 308 308 310 311 312 312 310 308 307 302 299 297 297 295 292 289 287 285 283 283 281 281 281 279 279 280 280 281 280 280 279 279 279 279 280 280 281 282
310 311 311 311 307 307 309 309 308 310 311 311 312 311 304 301 303 298 295 292 289 286 285 283 281 280 279 279 278 277 277 278 278 278 277 277 277 277 277 277 278 278 279 279
310 310 311 309 309 311 308 303 307 308 309 309 309 306 304 301 288 285 286 287 285 284 282 280 279 278 277 276 276 276 276 276 276 276 275 275 275 275 276 276 276 276 276 277
308 310 312 311 311 307 304 300 303 306 307 305 309 293 287 286 287 282 281 281 280 280 279 278 277 276 275 275 275 276 275 275 275 275 274 274 274 274 274 275 275 275 275 276
309 309 311 304 310 311 305 298 296 304 308 296 301 292 288 291 300 289 280 279 279 277 277 276 275 275 275 274 274 275 275 274 274 273 273 273 273 273 273 274 274 274 274 275
310 310 311 306 309 306 299 292 292 306 304 288 291 292 289 292 285 280 278 277 277 276 276 274 274 274 273 273 273 274 274 273 272 272 272 272 272 272 273 273 273 273 273 274
310 311 311 306 306 307 287 292 302 294 284 284 283 283 281 278 278 277 277 276 275 275 274 273 273 273 272 272 272 272 272 271 270 270 270 270 270 271 272 271 271 272 272 272
307 306 305 305 303 283 281 282 283 283 282 280 280 280 279 277 276 276 275 275 274 274 273 272 272 272 271 270 270 271 270 269 269 268 268 268 269 269 269 270 270 270 271 271
294 292 293 293 285 281 279 278 278 279 279 278 278 277 277 276 276 275 275 275 273 272 271 271 271 270 270 269 268 268 267 267 267 266 267 267 267 267 268 269 269 269 270 271
294 294 289 285 281 279 279 278 277 277 276 276 276 276 276 276 276 275 273 272 271 271 269 269 269 269 268 267 266 266 265 265 265 265 265 266 266 266 267 267 268 269 270 270
286 294 299 301 284 287 281 278 277 277 276 275 275 275 275 274 274 273 272 270 270 269 268 268 267 266 266 265 265 264 264 263 263 263 263 264 264 264 265 266 266 267 268 269

GFSCGP_925_thetae_168.txt.gz
Theta_e
316 316 316 315 317 310 310 315 313 315 316 321 319 319 318 318 320 320 320 320 320 320 318 318 318 317 316 315 317 319 321 325 328 330 332 332 332 332 332 332 331 330 330 330
317 316 311 311 316 316 312 312 313 316 317 319 316 317 316 317 317 318 318 318 318 317 317 317 317 316 315 316 316 317 319 322 327 328 330 330 331 331 331 331 331 331 331 330
313 311 311 313 315 317 316 314 312 310 317 318 319 315 315 315 316 316 316 316 316 316 316 316 314 315 316 316 316 316 318 321 323 326 327 329 330 330 330 331 331 330 329 329
314 311 313 313 311 312 312 314 315 314 313 310 313 307 309 310 312 315 316 316 316 316 315 315 315 316 315 314 315 315 315 316 319 323 327 328 328 329 330 330 330 329 328 328
314 314 313 315 313 312 311 314 316 315 315 314 312 314 308 313 311 313 315 317 317 317 316 316 313 312 311 312 316 318 317 316 318 323 326 328 329 329 330 330 329 328 328 328
313 312 313 312 313 314 314 317 318 318 317 318 311 312 310 309 310 312 316 316 316 315 314 312 308 309 311 313 320 324 324 325 325 325 327 328 329 329 330 329 329 329 328 327
314 314 312 311 313 315 315 316 317 319 319 317 309 312 310 310 311 311 312 314 314 314 312 309 309 308 307 307 310 311 315 313 321 326 328 329 329 330 329 329 329 329 329 328
316 316 314 312 312 314 316 314 312 312 314 312 313 313 311 312 311 311 312 313 313 312 309 307 305 304 303 302 304 305 305 306 305 309 313 319 323 323 323 324 326 325 325 325
315 313 312 313 311 313 315 315 310 308 310 315 310 312 311 312 313 312 315 312 313 309 306 304 302 300 299 298 298 299 299 299 300 300 300 301 302 303 302 304 305 304 303 304
312 313 310 312 313 312 314 313 315 314 312 312 309 310 311 314 314 313 314 315 312 306 304 302 300 298 296 296 295 294 295 295 296 296 297 297 297 297 298 298 298 298 298 298
311 312 311 312 315 315 313 316 314 313 313 311 309 308 308 309 312 314 314 314 310 305 303 300 297 296 295 294 293 292 292 292 292 293 294 294 295 294 294 294 294 294 295 295
312 311 314 313 312 313 314 315 315 315 315 313 311 310 310 311 311 312 313 312 306 303 300 298 295 294 294 293 291 290 289 289 289 290 291 291 292 292 291 290 290 290 291 292
312 311 315 313 311 310 315 315 315 314 313 317 317 313 310 310 311 310 310 306 303 300 297 296 294 293 292 291 290 288 287 287 287 288 289 289 289 287 287 287 287 287 288 288
312 312 313 313 312 311 313 314 315 315 317 315 315 313 312 310 311 308 306 303 301 299 297 295 293 291 289 288 287 286 285 285 285 286 286 285 284 284 284 284 284 285 285 286
311 313 312 312 311 309 312 313 314 316 315 315 315 313 313 312 311 308 305 302 300 298 297 294 292 289 287 286 284 283 283 283 283 283 282 281 281 281 281 281 282 282 282 283
311 315 313 312 311 310 311 312 313 313 315 315 314 313 312 311 309 307 303 301 300 298 295 290 288 285 284 283 282 281 281 281 281 281 280 279 279 280 280 279 280 280 280 281
311 312 313 314 312 311 311 310 312 312 312 313 315 313 312 309 307 306 303 301 299 295 291 288 286 284 282 280 279 280 279 279 279 279 279 278 278 278 278 278 279 279 279 280
310 311 312 314 312 314 311 310 309 311 311 311 311 311 311 311 305 303 303 300 296 291 288 285 282 281 279 278 278 279 278 278 278 278 278 277 277 277 277 278 278 278 278 279
309 311 313 314 313 311 309 306 309 310 310 309 311 311 310 296 294 290 290 294 290 287 284 281 280 278 278 277 277 278 277 277 277 277 276 276 276 276 276 277 277 277 277 278
308 309 311 311 312 313 310 305 304 308 311 308 308 310 304 296 306 308 287 285 283 281 280 279 278 277 277 276 277 277 276 276 276 275 275 274 274 274 275 275 275 275 276 276
309 310 312 313 312 311 309 297 303 310 310 306 306 308 298 302 300 291 284 282 281 279 277 277 277 276 275 275 276 276 275 275 273 273 272 272 272 272 273 273 273 274 274 274
310 311 313 312 313 312 296 296 308 302 289 291 294 297 296 286 283 283 281 280 279 278 276 276 276 275 274 274 274 274 273 272 271 270 270 270 270 271 271 271 272 272 273 273
310 310 311 311 309 288 286 288 285 285 287 285 287 285 284 282 281 280 279 278 277 276 275 275 275 274 272 272 272 272 270 269 269 268 268 269 269 269 269 270 271 271 272 272
300 296 304 302 291 287 283 281 281 283 283 282 283 283 282 281 280 279 278 277 276 274 274 273 273 272 271 269 269 268 268 267 267 267 267 267 268 268 268 269 269 270 270 271
298 297 296 296 284 282 282 282 281 280 280 280 280 280 280 279 278 278 277 275 274 273 272 271 271 270 269 268 267 266 265 265 266 265 266 266 266 267 267 267 268 268 269 269
293 297 302 305 289 291 288 282 280 279 279 279 278 278 278 278 277 276 275 273 272 271 270 269 268 268 267 266 265 264 264 263 263 264 264 264 265 265 265 266 266 266 266 267

GFSCGP_925_thetae_171.txt.gz
Theta_e
316 315 315 313 314 313 311 313 315 313 315 317 318 316 317 317 318 319 318 317 318 319 320 320 320 320 320 320 319 317 319 323 327 329 332 333 335 335 335 335 335 332 331 332
316 317 312 311 312 314 314 310 313 312 315 316 314 313 314 315 315 316 317 318 317 317 317 317 317 317 317 318 317 316 317 319 322 326 329 331 332 332 333 333 334 334 331 332
315 313 312 310 312 313 315 314 309 309 315 316 315 313 314 314 314 314 315 316 316 316 316 316 316 315 316 316 316 318 318 319 321 324 328 329 330 331 332 332 332 333 332 331
315 313 312 312 312 312 313 313 312 310 313 310 314 309 311 311 311 314 315 315 315 316 316 316 316 315 315 317 318 318 318 318 319 322 325 327 328 329 329 330 332 333 331 330
316 314 313 314 313 311 312 310 312 313 314 313 310 311 310 310 310 311 313 314 315 315 316 316 318 317 316 315 318 320 320 319 318 318 321 325 328 328 328 330 331 331 330 330
314 313 313 313 313 312 311 312 314 314 315 316 312 311 310 311 311 311 312 313 314 316 317 317 314 313 315 316 320 326 326 325 325 323 323 325 327 329 329 330 330 329 329 329
314 314 313 312 313 313 314 315 319 319 319 319 311 312 312 311 311 311 311 313 315 317 316 314 313 312 312 313 314 315 316 314 319 322 323 325 327 328 328 329 329 330 329 329
316 317 315 312 313 315 315 315 316 316 316 314 312 313 311 312 312 312 311 311 314 315 315 311 309 309 308 308 309 309 310 307 306 309 312 317 322 322 320 320 321 321 320 318
316 314 314 313 312 312 315 316 313 313 313 312 311 312 312 313 312 312 312 312 313 315 311 308 306 305 304 303 303 303 303 303 302 301 301 302 303 303 302 303 303 300 300 300
313 314 312 313 313 312 314 314 315 315 314 313 309 310 310 313 312 312 312 312 314 312 309 306 304 301 300 299 298 298 298 298 298 299 299 298 297 297 297 297 296 296 296 297
313 314 312 314 315 314 313 315 315 314 313 313 312 311 310 311 311 312 313 312 314 311 308 304 301 299 297 296 295 295 294 294 295 295 296 296 295 294 293 293 293 293 293 293
313 313 315 314 313 313 313 313 315 316 316 314 313 312 312 312 312 310 311 313 314 309 306 302 300 298 297 295 293 293 292 292 292 293 293 293 291 290 290 290 289 290 290 290
313 314 316 315 313 312 315 314 314 315 314 316 318 314 311 312 312 313 313 313 312 308 304 301 298 297 296 294 292 290 290 289 289 290 290 288 287 287 287 287 287 287 288 287
312 314 315 314 313 312 314 315 315 315 318 315 315 314 313 311 311 311 313 312 309 306 302 299 298 296 293 292 289 288 287 287 287 287 286 285 284 284 284 284 284 284 285 285
311 313 312 312 312 310 312 313 314 317 316 316 315 314 313 313 312 312 312 310 307 304 301 299 297 294 291 289 287 286 285 285 285 284 283 282 283 282 283 283 282 282 283 283
311 313 312 313 312 312 312 311 312 314 316 316 315 314 313 312 312 312 311 309 306 303 301 298 295 291 289 287 285 284 284 283 283 283 282 282 282 282 281 281 281 281 282 282
310 312 314 314 312 312 313 312 311 312 314 315 316 315 313 313 312 312 311 307 305 303 301 297 292 289 287 284 283 283 282 282 282 282 281 280 280 280 280 280 280 280 280 281
310 311 312 313 312 315 312 311 311 311 311 312 313 313 313 313 313 312 310 307 305 302 298 293 290 286 283 282 282 281 281 281 281 280 280 279 279 279 279 279 279 279 279 279
308 310 311 311 312 309 309 309 310 311 311 310 311 312 312 312 305 305 306 307 305 301 295 290 286 284 281 281 281 280 280 280 279 279 278 277 277 277 277 278 277 277 277 277
306 309 312 314 315 315 311 310 309 310 312 310 310 310 310 309 308 310 298 302 299 293 288 285 282 281 280 279 279 279 279 279 278 276 275 275 275 275 275 275 275 275 276 276
307 307 310 312 313 311 307 305 307 311 310 309 309 309 309 309 308 304 296 292 288 286 284 282 280 280 278 278 279 278 278 276 275 273 273 273 273 273 273 274 273 274 274 274
308 308 309 308 311 312 306 303 308 306 299 295 299 303 307 307 294 292 290 287 285 283 281 280 279 277 277 277 278 277 274 273 272 271 271 271 271 271 272 272 272 272 273 273
308 307 310 310 310 298 302 299 289 289 292 291 292 292 294 290 289 288 286 284 282 280 280 279 277 276 275 274 275 274 271 270 270 269 269 269 270 270 270 271 271 271 272 272
305 301 307 308 302 295 291 286 284 285 287 286 287 288 288 287 285 284 283 282 280 278 278 277 276 274 272 271 270 270 269 268 268 268 268 269 269 268 269 269 270 270 270 270
303 301 304 303 298 290 290 287 286 283 283 284 284 285 285 284 283 281 281 279 277 276 275 275 274 272 270 269 268 267 266 267 267 267 267 267 267 267 268 268 268 268 269 269
297 302 303 309 293 297 294 288 284 283 282 282 282 282 282 282 281 279 278 277 275 274 273 272 271 270 268 267 266 265 265 265 264 266 266 266 265 266 266 267 267 267 267 267